Year,Month,Day,Hour,Minute,Value (Times are PST for windgust in km/hr)
2021,02,12,00,00,45.10
2021,02,12,00,01,45.10
2021,02,12,00,02,41.80
2021,02,12,00,03,41.80
2021,02,12,00,04,43.50
2021,02,12,00,05,35.40
2021,02,12,00,06,35.40
2021,02,12,00,07,29.00
2021,02,12,00,08,32.20
2021,02,12,00,09,38.60
2021,02,12,00,10,38.60
2021,02,12,00,11,35.40
2021,02,12,00,12,35.40
2021,02,12,00,13,38.60
2021,02,12,00,14,40.20
2021,02,12,00,15,32.20
2021,02,12,00,16,32.20
2021,02,12,00,17,43.50
2021,02,12,00,18,40.20
2021,02,12,00,19,40.20
2021,02,12,00,20,46.70
2021,02,12,00,21,30.60
2021,02,12,00,22,30.60
2021,02,12,00,23,32.20
2021,02,12,00,24,41.80
2021,02,12,00,25,40.20
2021,02,12,00,26,48.30
2021,02,12,00,27,45.10
2021,02,12,00,28,43.50
2021,02,12,00,29,45.10
2021,02,12,00,30,46.70
2021,02,12,00,31,48.30
2021,02,12,00,32,48.30
2021,02,12,00,33,45.10
2021,02,12,00,34,40.20
2021,02,12,00,35,38.60
2021,02,12,00,36,38.60
2021,02,12,00,37,38.60
2021,02,12,00,38,33.80
2021,02,12,00,39,33.80
2021,02,12,00,40,37.00
2021,02,12,00,41,35.40
2021,02,12,00,42,40.20
2021,02,12,00,43,37.00
2021,02,12,00,44,29.00
2021,02,12,00,45,43.50
2021,02,12,00,46,35.40
2021,02,12,00,47,35.40
2021,02,12,00,48,46.70
2021,02,12,00,49,46.70
2021,02,12,00,50,37.00
2021,02,12,00,51,43.50
2021,02,12,00,52,37.00
2021,02,12,00,53,33.80
2021,02,12,00,54,32.20
2021,02,12,00,55,38.60
2021,02,12,00,56,33.80
2021,02,12,00,57,30.60
2021,02,12,00,58,29.00
2021,02,12,00,59,32.20
2021,02,12,01,00,38.60
2021,02,12,01,01,41.80
2021,02,12,01,02,30.60
2021,02,12,01,03,33.80
2021,02,12,01,04,33.80
2021,02,12,01,05,33.80
2021,02,12,01,06,35.40
2021,02,12,01,07,30.60
2021,02,12,01,08,35.40
2021,02,12,01,09,35.40
2021,02,12,01,10,30.60
2021,02,12,01,11,25.70
2021,02,12,01,12,27.40
2021,02,12,01,13,25.70
2021,02,12,01,14,37.00
2021,02,12,01,15,35.40
2021,02,12,01,16,27.40
2021,02,12,01,17,35.40
2021,02,12,01,18,38.60
2021,02,12,01,19,25.70
2021,02,12,01,20,19.30
2021,02,12,01,21,24.20
2021,02,12,01,22,27.40
2021,02,12,01,23,40.20
2021,02,12,01,24,40.20
2021,02,12,01,25,37.00
2021,02,12,01,26,37.00
2021,02,12,01,27,33.80
2021,02,12,01,28,32.20
2021,02,12,01,29,32.20
2021,02,12,01,30,32.20
2021,02,12,01,31,27.40
2021,02,12,01,32,40.20
2021,02,12,01,33,40.20
2021,02,12,01,34,45.10
2021,02,12,01,35,38.60
2021,02,12,01,36,38.60
2021,02,12,01,37,35.40
2021,02,12,01,38,38.60
2021,02,12,01,39,43.50
2021,02,12,01,40,43.50
2021,02,12,01,41,30.60
2021,02,12,01,42,30.60
2021,02,12,01,43,30.60
2021,02,12,01,44,33.80
2021,02,12,01,45,35.40
2021,02,12,01,46,33.80
2021,02,12,01,47,33.80
2021,02,12,01,48,30.60
2021,02,12,01,49,27.40
2021,02,12,01,50,29.00
2021,02,12,01,51,38.60
2021,02,12,01,52,35.40
2021,02,12,01,53,25.70
2021,02,12,01,54,25.70
2021,02,12,01,55,33.80
2021,02,12,01,56,35.40
2021,02,12,01,57,35.40
2021,02,12,01,58,35.40
2021,02,12,01,59,25.70
2021,02,12,02,00,27.40
2021,02,12,02,01,27.40
2021,02,12,02,02,19.30
2021,02,12,02,03,22.50
2021,02,12,02,04,25.70
2021,02,12,02,05,27.40
2021,02,12,02,06,27.40
2021,02,12,02,07,22.50
2021,02,12,02,08,20.90
2021,02,12,02,09,30.60
2021,02,12,02,10,30.60
2021,02,12,02,11,29.00
2021,02,12,02,12,32.20
2021,02,12,02,13,40.20
2021,02,12,02,14,30.60
2021,02,12,02,15,30.60
2021,02,12,02,16,32.20
2021,02,12,02,17,30.60
2021,02,12,02,18,22.50
2021,02,12,02,19,30.60
2021,02,12,02,20,22.50
2021,02,12,02,21,27.40
2021,02,12,02,22,32.20
2021,02,12,02,23,22.50
2021,02,12,02,24,32.20
2021,02,12,02,25,35.40
2021,02,12,02,26,33.80
2021,02,12,02,27,27.40
2021,02,12,02,28,32.20
2021,02,12,02,29,35.40
2021,02,12,02,30,32.20
2021,02,12,02,31,35.40
2021,02,12,02,32,30.60
2021,02,12,02,33,24.20
2021,02,12,02,34,27.40
2021,02,12,02,35,32.20
2021,02,12,02,36,32.20
2021,02,12,02,37,24.20
2021,02,12,02,38,29.00
2021,02,12,02,39,30.60
2021,02,12,02,40,33.80
2021,02,12,02,41,29.00
2021,02,12,02,42,19.30
2021,02,12,02,43,24.20
2021,02,12,02,44,30.60
2021,02,12,02,45,41.80
2021,02,12,02,46,38.60
2021,02,12,02,47,43.50
2021,02,12,02,48,41.80
2021,02,12,02,49,38.60
2021,02,12,02,50,38.60
2021,02,12,02,51,32.20
2021,02,12,02,52,32.20
2021,02,12,02,53,38.60
2021,02,12,02,54,27.40
2021,02,12,02,55,25.70
2021,02,12,02,56,32.20
2021,02,12,02,57,45.10
2021,02,12,02,58,37.00
2021,02,12,02,59,33.80
2021,02,12,03,00,48.30
2021,02,12,03,01,48.30
2021,02,12,03,02,38.60
2021,02,12,03,03,46.70
2021,02,12,03,04,37.00
2021,02,12,03,05,33.80
2021,02,12,03,06,35.40
2021,02,12,03,07,38.60
2021,02,12,03,08,35.40
2021,02,12,03,09,33.80
2021,02,12,03,10,27.40
2021,02,12,03,11,25.70
2021,02,12,03,12,35.40
2021,02,12,03,13,30.60
2021,02,12,03,14,32.20
2021,02,12,03,15,29.00
2021,02,12,03,16,33.80
2021,02,12,03,17,29.00
2021,02,12,03,18,27.40
2021,02,12,03,19,30.60
2021,02,12,03,20,33.80
2021,02,12,03,21,37.00
2021,02,12,03,22,43.50
2021,02,12,03,23,35.40
2021,02,12,03,24,38.60
2021,02,12,03,25,40.20
2021,02,12,03,26,35.40
2021,02,12,03,27,33.80
2021,02,12,03,28,32.20
2021,02,12,03,29,30.60
2021,02,12,03,30,35.40
2021,02,12,03,31,40.20
2021,02,12,03,32,32.20
2021,02,12,03,33,32.20
2021,02,12,03,34,30.60
2021,02,12,03,35,38.60
2021,02,12,03,36,41.80
2021,02,12,03,37,29.00
2021,02,12,03,38,38.60
2021,02,12,03,39,41.80
2021,02,12,03,40,33.80
2021,02,12,03,41,45.10
2021,02,12,03,42,32.20
2021,02,12,03,43,38.60
2021,02,12,03,44,43.50
2021,02,12,03,45,41.80
2021,02,12,03,46,46.70
2021,02,12,03,47,43.50
2021,02,12,03,48,35.40
2021,02,12,03,49,38.60
2021,02,12,03,50,38.60
2021,02,12,03,51,38.60
2021,02,12,03,52,53.10
2021,02,12,03,53,41.80
2021,02,12,03,54,45.10
2021,02,12,03,55,45.10
2021,02,12,03,56,38.60
2021,02,12,03,57,38.60
2021,02,12,03,58,41.80
2021,02,12,03,59,41.80
2021,02,12,04,00,38.60
2021,02,12,04,01,45.10
2021,02,12,04,02,45.10
2021,02,12,04,03,32.20
2021,02,12,04,04,35.40
2021,02,12,04,05,33.80
2021,02,12,04,06,25.70
2021,02,12,04,07,30.60
2021,02,12,04,08,33.80
2021,02,12,04,09,37.00
2021,02,12,04,10,32.20
2021,02,12,04,11,30.60
2021,02,12,04,12,29.00
2021,02,12,04,13,30.60
2021,02,12,04,14,41.80
2021,02,12,04,15,38.60
2021,02,12,04,16,48.30
2021,02,12,04,17,41.80
2021,02,12,04,18,46.70
2021,02,12,04,19,41.80
2021,02,12,04,20,37.00
2021,02,12,04,21,33.80
2021,02,12,04,22,38.60
2021,02,12,04,23,33.80
2021,02,12,04,24,40.20
2021,02,12,04,25,35.40
2021,02,12,04,26,35.40
2021,02,12,04,27,40.20
2021,02,12,04,28,41.80
2021,02,12,04,29,41.80
2021,02,12,04,30,53.10
2021,02,12,04,31,38.60
2021,02,12,04,32,37.00
2021,02,12,04,33,32.20
2021,02,12,04,34,35.40
2021,02,12,04,35,32.20
2021,02,12,04,36,40.20
2021,02,12,04,37,45.10
2021,02,12,04,38,40.20
2021,02,12,04,39,30.60
2021,02,12,04,40,30.60
2021,02,12,04,41,33.80
2021,02,12,04,42,30.60
2021,02,12,04,43,37.00
2021,02,12,04,44,38.60
2021,02,12,04,45,46.70
2021,02,12,04,46,41.80
2021,02,12,04,47,25.70
2021,02,12,04,48,27.40
2021,02,12,04,49,37.00
2021,02,12,04,50,40.20
2021,02,12,04,51,32.20
2021,02,12,04,52,32.20
2021,02,12,04,53,38.60
2021,02,12,04,54,38.60
2021,02,12,04,55,32.20
2021,02,12,04,56,29.00
2021,02,12,04,57,38.60
2021,02,12,04,58,46.70
2021,02,12,04,59,40.20
2021,02,12,05,00,41.80
2021,02,12,05,01,41.80
2021,02,12,05,02,30.60
2021,02,12,05,03,30.60
2021,02,12,05,04,41.80
2021,02,12,05,05,40.20
2021,02,12,05,06,33.80
2021,02,12,05,07,30.60
2021,02,12,05,08,43.50
2021,02,12,05,09,35.40
2021,02,12,05,10,35.40
2021,02,12,05,11,30.60
2021,02,12,05,12,38.60
2021,02,12,05,13,33.80
2021,02,12,05,14,41.80
2021,02,12,05,15,37.00
2021,02,12,05,16,43.50
2021,02,12,05,17,46.70
2021,02,12,05,18,45.10
2021,02,12,05,19,37.00
2021,02,12,05,20,37.00
2021,02,12,05,21,48.30
2021,02,12,05,22,43.50
2021,02,12,05,23,41.80
2021,02,12,05,24,51.50
2021,02,12,05,25,43.50
2021,02,12,05,26,40.20
2021,02,12,05,27,33.80
2021,02,12,05,28,41.80
2021,02,12,05,29,32.20
2021,02,12,05,30,35.40
2021,02,12,05,31,35.40
2021,02,12,05,32,37.00
2021,02,12,05,33,37.00
2021,02,12,05,34,37.00
2021,02,12,05,35,35.40
2021,02,12,05,36,45.10
2021,02,12,05,37,38.60
2021,02,12,05,38,33.80
2021,02,12,05,39,40.20
2021,02,12,05,40,35.40
2021,02,12,05,41,40.20
2021,02,12,05,42,37.00
2021,02,12,05,43,37.00
2021,02,12,05,44,37.00
2021,02,12,05,45,32.20
2021,02,12,05,46,30.60
2021,02,12,05,47,24.20
2021,02,12,05,48,22.50
2021,02,12,05,49,37.00
2021,02,12,05,50,41.80
2021,02,12,05,51,30.60
2021,02,12,05,52,30.60
2021,02,12,05,53,30.60
2021,02,12,05,54,30.60
2021,02,12,05,55,25.70
2021,02,12,05,56,38.60
2021,02,12,05,57,38.60
2021,02,12,05,58,29.00
2021,02,12,05,59,37.00
2021,02,12,06,00,46.70
2021,02,12,06,01,45.10
2021,02,12,06,02,40.20
2021,02,12,06,03,38.60
2021,02,12,06,04,38.60
2021,02,12,06,05,40.20
2021,02,12,06,06,41.80
2021,02,12,06,07,41.80
2021,02,12,06,08,37.00
2021,02,12,06,09,43.50
2021,02,12,06,10,41.80
2021,02,12,06,11,45.10
2021,02,12,06,12,53.10
2021,02,12,06,13,48.30
2021,02,12,06,14,41.80
2021,02,12,06,15,38.60
2021,02,12,06,16,32.20
2021,02,12,06,17,35.40
2021,02,12,06,18,38.60
2021,02,12,06,19,51.50
2021,02,12,06,20,35.40
2021,02,12,06,21,46.70
2021,02,12,06,22,48.30
2021,02,12,06,23,53.10
2021,02,12,06,24,38.60
2021,02,12,06,25,41.80
2021,02,12,06,26,24.20
2021,02,12,06,27,30.60
2021,02,12,06,28,35.40
2021,02,12,06,29,43.50
2021,02,12,06,30,40.20
2021,02,12,06,31,33.80
2021,02,12,06,32,27.40
2021,02,12,06,33,25.70
2021,02,12,06,34,32.20
2021,02,12,06,35,37.00
2021,02,12,06,36,38.60
2021,02,12,06,37,45.10
2021,02,12,06,38,32.20
2021,02,12,06,39,24.20
2021,02,12,06,40,32.20
2021,02,12,06,41,38.60
2021,02,12,06,42,37.00
2021,02,12,06,43,33.80
2021,02,12,06,44,37.00
2021,02,12,06,45,37.00
2021,02,12,06,46,37.00
2021,02,12,06,47,35.40
2021,02,12,06,48,48.30
2021,02,12,06,49,32.20
2021,02,12,06,50,46.70
2021,02,12,06,51,38.60
2021,02,12,06,52,32.20
2021,02,12,06,53,43.50
2021,02,12,06,54,46.70
2021,02,12,06,55,41.80
2021,02,12,06,56,45.10
2021,02,12,06,57,41.80
2021,02,12,06,58,35.40
2021,02,12,06,59,38.60
2021,02,12,07,00,38.60
2021,02,12,07,01,37.00
2021,02,12,07,02,41.80
2021,02,12,07,03,43.50
2021,02,12,07,04,33.80
2021,02,12,07,05,41.80
2021,02,12,07,06,37.00
2021,02,12,07,07,38.60
2021,02,12,07,08,33.80
2021,02,12,07,09,37.00
2021,02,12,07,10,37.00
2021,02,12,07,11,35.40
2021,02,12,07,12,40.20
2021,02,12,07,13,37.00
2021,02,12,07,14,38.60
2021,02,12,07,15,41.80
2021,02,12,07,16,32.20
2021,02,12,07,17,33.80
2021,02,12,07,18,33.80
2021,02,12,07,19,33.80
2021,02,12,07,20,40.20
2021,02,12,07,21,46.70
2021,02,12,07,22,45.10
2021,02,12,07,23,43.50
2021,02,12,07,24,46.70
2021,02,12,07,25,43.50
2021,02,12,07,26,43.50
2021,02,12,07,27,46.70
2021,02,12,07,28,49.90
2021,02,12,07,29,41.80
2021,02,12,07,30,32.20
2021,02,12,07,31,38.60
2021,02,12,07,32,45.10
2021,02,12,07,33,45.10
2021,02,12,07,34,32.20
2021,02,12,07,35,30.60
2021,02,12,07,36,27.40
2021,02,12,07,37,22.50
2021,02,12,07,38,41.80
2021,02,12,07,39,38.60
2021,02,12,07,40,33.80
2021,02,12,07,41,37.00
2021,02,12,07,42,40.20
2021,02,12,07,43,43.50
2021,02,12,07,44,43.50
2021,02,12,07,45,45.10
2021,02,12,07,46,38.60
2021,02,12,07,47,33.80
2021,02,12,07,48,43.50
2021,02,12,07,49,40.20
2021,02,12,07,50,37.00
2021,02,12,07,51,29.00
2021,02,12,07,52,37.00
2021,02,12,07,53,32.20
2021,02,12,07,54,32.20
2021,02,12,07,55,40.20
2021,02,12,07,56,37.00
2021,02,12,07,57,37.00
2021,02,12,07,58,49.90
2021,02,12,07,59,38.60
2021,02,12,08,00,37.00
2021,02,12,08,01,33.80
2021,02,12,08,02,29.00
2021,02,12,08,03,35.40
2021,02,12,08,04,30.60
2021,02,12,08,05,40.20
2021,02,12,08,06,41.80
2021,02,12,08,07,35.40
2021,02,12,08,08,43.50
2021,02,12,08,09,48.30
2021,02,12,08,10,51.50
2021,02,12,08,11,48.30
2021,02,12,08,12,43.50
2021,02,12,08,13,48.30
2021,02,12,08,14,40.20
2021,02,12,08,15,45.10
2021,02,12,08,16,46.70
2021,02,12,08,17,35.40
2021,02,12,08,18,38.60
2021,02,12,08,19,40.20
2021,02,12,08,20,38.60
2021,02,12,08,21,33.80
2021,02,12,08,22,43.50
2021,02,12,08,23,40.20
2021,02,12,08,24,45.10
2021,02,12,08,25,48.30
2021,02,12,08,26,45.10
2021,02,12,08,27,43.50
2021,02,12,08,28,43.50
2021,02,12,08,29,45.10
2021,02,12,08,30,56.30
2021,02,12,08,31,45.10
2021,02,12,08,32,51.50
2021,02,12,08,33,45.10
2021,02,12,08,34,40.20
2021,02,12,08,35,32.20
2021,02,12,08,36,37.00
2021,02,12,08,37,38.60
2021,02,12,08,38,54.70
2021,02,12,08,39,53.10
2021,02,12,08,40,46.70
2021,02,12,08,41,46.70
2021,02,12,08,42,49.90
2021,02,12,08,43,49.90
2021,02,12,08,44,46.70
2021,02,12,08,45,40.20
2021,02,12,08,46,51.50
2021,02,12,08,47,51.50
2021,02,12,08,48,48.30
2021,02,12,08,49,41.80
2021,02,12,08,50,48.30
2021,02,12,08,51,41.80
2021,02,12,08,52,40.20
2021,02,12,08,53,35.40
2021,02,12,08,54,40.20
2021,02,12,08,55,49.90
2021,02,12,08,56,49.90
2021,02,12,08,57,51.50
2021,02,12,08,58,48.30
2021,02,12,08,59,48.30
2021,02,12,09,00,49.90
2021,02,12,09,01,45.10
2021,02,12,09,02,48.30
2021,02,12,09,03,37.00
2021,02,12,09,04,35.40
2021,02,12,09,05,33.80
2021,02,12,09,06,33.80
2021,02,12,09,07,38.60
2021,02,12,09,08,38.60
2021,02,12,09,09,40.20
2021,02,12,09,10,33.80
2021,02,12,09,11,45.10
2021,02,12,09,12,43.50
2021,02,12,09,13,45.10
2021,02,12,09,14,45.10
2021,02,12,09,15,40.20
2021,02,12,09,16,45.10
2021,02,12,09,17,46.70
2021,02,12,09,18,45.10
2021,02,12,09,19,41.80
2021,02,12,09,20,41.80
2021,02,12,09,21,32.20
2021,02,12,09,22,35.40
2021,02,12,09,23,38.60
2021,02,12,09,24,48.30
2021,02,12,09,25,49.90
2021,02,12,09,26,43.50
2021,02,12,09,27,46.70
2021,02,12,09,28,46.70
2021,02,12,09,29,37.00
2021,02,12,09,30,40.20
2021,02,12,09,31,37.00
2021,02,12,09,32,35.40
2021,02,12,09,33,37.00
2021,02,12,09,34,45.10
2021,02,12,09,35,37.00
2021,02,12,09,36,37.00
2021,02,12,09,37,33.80
2021,02,12,09,38,24.20
2021,02,12,09,39,27.40
2021,02,12,09,40,27.40
2021,02,12,09,41,30.60
2021,02,12,09,42,40.20
2021,02,12,09,43,37.00
2021,02,12,09,44,33.80
2021,02,12,09,45,32.20
2021,02,12,09,46,17.70
2021,02,12,09,47,17.70
2021,02,12,09,48,17.70
2021,02,12,09,49,17.70
2021,02,12,09,50,43.50
2021,02,12,09,51,43.50
2021,02,12,09,52,43.50
2021,02,12,09,53,41.80
2021,02,12,09,54,46.70
2021,02,12,09,55,41.80
2021,02,12,09,56,40.20
2021,02,12,09,57,53.10
2021,02,12,09,58,45.10
2021,02,12,09,59,35.40
2021,02,12,10,00,35.40
2021,02,12,10,01,27.40
2021,02,12,10,02,25.70
2021,02,12,10,03,35.40
2021,02,12,10,04,37.00
2021,02,12,10,05,49.90
2021,02,12,10,06,38.60
2021,02,12,10,07,37.00
2021,02,12,10,08,30.60
2021,02,12,10,09,27.40
2021,02,12,10,10,27.40
2021,02,12,10,11,27.40
2021,02,12,10,12,41.80
2021,02,12,10,13,43.50
2021,02,12,10,14,40.20
2021,02,12,10,15,30.60
2021,02,12,10,16,27.40
2021,02,12,10,17,32.20
2021,02,12,10,18,33.80
2021,02,12,10,19,40.20
2021,02,12,10,20,40.20
2021,02,12,10,21,35.40
2021,02,12,10,22,41.80
2021,02,12,10,23,40.20
2021,02,12,10,24,43.50
2021,02,12,10,25,40.20
2021,02,12,10,26,40.20
2021,02,12,10,27,45.10
2021,02,12,10,28,48.30
2021,02,12,10,29,37.00
2021,02,12,10,30,43.50
2021,02,12,10,31,45.10
2021,02,12,10,32,46.70
2021,02,12,10,33,40.20
2021,02,12,10,34,35.40
2021,02,12,10,35,38.60
2021,02,12,10,36,38.60
2021,02,12,10,37,35.40
2021,02,12,10,38,37.00
2021,02,12,10,39,38.60
2021,02,12,10,40,37.00
2021,02,12,10,41,38.60
2021,02,12,10,42,38.60
2021,02,12,10,43,43.50
2021,02,12,10,44,41.80
2021,02,12,10,45,43.50
2021,02,12,10,46,38.60
2021,02,12,10,47,35.40
2021,02,12,10,48,30.60
2021,02,12,10,49,40.20
2021,02,12,10,50,38.60
2021,02,12,10,51,27.40
2021,02,12,10,52,27.40
2021,02,12,10,53,33.80
2021,02,12,10,54,35.40
2021,02,12,10,55,32.20
2021,02,12,10,56,32.20
2021,02,12,10,57,30.60
2021,02,12,10,58,22.50
2021,02,12,10,59,17.70
2021,02,12,11,00,12.90
2021,02,12,11,01,27.40
2021,02,12,11,02,24.20
2021,02,12,11,03,27.40
2021,02,12,11,04,27.40
2021,02,12,11,05,27.40
2021,02,12,11,06,17.70
2021,02,12,11,07,22.50
2021,02,12,11,08,29.00
2021,02,12,11,09,29.00
2021,02,12,11,10,24.20
2021,02,12,11,11,24.20
2021,02,12,11,12,20.90
2021,02,12,11,13,19.30
2021,02,12,11,14,27.40
2021,02,12,11,15,24.20
2021,02,12,11,16,30.60
2021,02,12,11,17,32.20
2021,02,12,11,18,25.70
2021,02,12,11,19,27.40
2021,02,12,11,20,27.40
2021,02,12,11,21,22.50
2021,02,12,11,22,38.60
2021,02,12,11,23,35.40
2021,02,12,11,24,33.80
2021,02,12,11,25,32.20
2021,02,12,11,26,33.80
2021,02,12,11,27,35.40
2021,02,12,11,28,40.20
2021,02,12,11,29,38.60
2021,02,12,11,30,41.80
2021,02,12,11,31,35.40
2021,02,12,11,32,32.20
2021,02,12,11,33,24.20
2021,02,12,11,34,24.20
2021,02,12,11,35,25.70
2021,02,12,11,36,29.00
2021,02,12,11,37,27.40
2021,02,12,11,38,32.20
2021,02,12,11,39,29.00
2021,02,12,11,40,30.60
2021,02,12,11,41,30.60
2021,02,12,11,42,19.30
2021,02,12,11,43,22.50
2021,02,12,11,44,20.90
2021,02,12,11,45,20.90
2021,02,12,11,46,19.30
2021,02,12,11,47,20.90
2021,02,12,11,48,24.20
2021,02,12,11,49,25.70
2021,02,12,11,50,32.20
2021,02,12,11,51,40.20
2021,02,12,11,52,37.00
2021,02,12,11,53,38.60
2021,02,12,11,54,33.80
2021,02,12,11,55,35.40
2021,02,12,11,56,35.40
2021,02,12,11,57,29.00
2021,02,12,11,58,29.00
2021,02,12,11,59,33.80
2021,02,12,12,00,33.80
2021,02,12,12,01,33.80
2021,02,12,12,02,27.40
2021,02,12,12,03,33.80
2021,02,12,12,04,27.40
2021,02,12,12,05,35.40
2021,02,12,12,06,35.40
2021,02,12,12,07,32.20
2021,02,12,12,08,32.20
2021,02,12,12,09,35.40
2021,02,12,12,10,41.80
2021,02,12,12,11,40.20
2021,02,12,12,12,38.60
2021,02,12,12,13,38.60
2021,02,12,12,14,35.40
2021,02,12,12,15,35.40
2021,02,12,12,16,33.80
2021,02,12,12,17,30.60
2021,02,12,12,18,38.60
2021,02,12,12,19,35.40
2021,02,12,12,20,33.80
2021,02,12,12,21,33.80
2021,02,12,12,22,30.60
2021,02,12,12,23,37.00
2021,02,12,12,24,37.00
2021,02,12,12,25,30.60
2021,02,12,12,26,32.20
2021,02,12,12,27,33.80
2021,02,12,12,28,33.80
2021,02,12,12,29,33.80
2021,02,12,12,30,29.00
2021,02,12,12,31,25.70
2021,02,12,12,32,24.20
2021,02,12,12,33,25.70
2021,02,12,12,34,32.20
2021,02,12,12,35,30.60
2021,02,12,12,36,27.40
2021,02,12,12,37,25.70
2021,02,12,12,38,27.40
2021,02,12,12,39,37.00
2021,02,12,12,40,38.60
2021,02,12,12,41,37.00
2021,02,12,12,42,35.40
2021,02,12,12,43,35.40
2021,02,12,12,44,30.60
2021,02,12,12,45,29.00
2021,02,12,12,46,32.20
2021,02,12,12,47,35.40
2021,02,12,12,48,35.40
2021,02,12,12,49,33.80
2021,02,12,12,50,37.00
2021,02,12,12,51,35.40
2021,02,12,12,52,27.40
2021,02,12,12,53,27.40
2021,02,12,12,54,33.80
2021,02,12,12,55,33.80
2021,02,12,12,56,33.80
2021,02,12,12,57,33.80
2021,02,12,12,58,33.80
2021,02,12,12,59,33.80
2021,02,12,13,00,8.10
2021,02,12,13,01,14.50
2021,02,12,13,02,11.30
2021,02,12,13,03,8.10
2021,02,12,13,04,4.80
2021,02,12,13,05,9.60
2021,02,12,13,06,14.50
2021,02,12,13,07,14.50
2021,02,12,13,08,14.50
2021,02,12,13,09,14.50
2021,02,12,13,10,9.60
2021,02,12,13,11,17.70
2021,02,12,13,12,12.90
2021,02,12,13,13,8.10
2021,02,12,13,14,11.30
2021,02,12,13,15,19.30
2021,02,12,13,16,11.30
2021,02,12,13,17,14.50
2021,02,12,13,18,9.60
2021,02,12,13,19,9.60
2021,02,12,13,20,4.80
2021,02,12,13,21,4.80
2021,02,12,13,22,4.80
2021,02,12,13,23,9.60
2021,02,12,13,24,11.30
2021,02,12,13,25,11.30
2021,02,12,13,26,11.30
2021,02,12,13,27,9.60
2021,02,12,13,28,16.10
2021,02,12,13,29,14.50
2021,02,12,13,30,11.30
2021,02,12,13,31,17.70
2021,02,12,13,32,11.30
2021,02,12,13,33,17.70
2021,02,12,13,34,16.10
2021,02,12,13,35,8.10
2021,02,12,13,36,11.30
2021,02,12,13,37,14.50
2021,02,12,13,38,6.40
2021,02,12,13,39,8.10
2021,02,12,13,40,14.50
2021,02,12,13,41,8.10
2021,02,12,13,42,9.60
2021,02,12,13,43,9.60
2021,02,12,13,44,11.30
2021,02,12,13,45,16.10
2021,02,12,13,46,9.60
2021,02,12,13,47,6.40
2021,02,12,13,48,4.80
2021,02,12,13,49,6.40
2021,02,12,13,50,8.10
2021,02,12,13,51,11.30
2021,02,12,13,52,4.80
2021,02,12,13,53,16.10
2021,02,12,13,54,6.40
2021,02,12,13,55,17.70
2021,02,12,13,56,11.30
2021,02,12,13,57,8.10
2021,02,12,13,58,4.80
2021,02,12,13,59,14.50
2021,02,12,14,00,11.30
2021,02,12,14,01,8.10
2021,02,12,14,02,11.30
2021,02,12,14,03,14.50
2021,02,12,14,04,6.40
2021,02,12,14,05,8.10
2021,02,12,14,06,11.30
2021,02,12,14,07,14.50
2021,02,12,14,08,16.10
2021,02,12,14,09,8.10
2021,02,12,14,10,11.30
2021,02,12,14,11,17.70
2021,02,12,14,12,11.30
2021,02,12,14,13,8.10
2021,02,12,14,14,8.10
2021,02,12,14,15,12.90
2021,02,12,14,16,8.10
2021,02,12,14,17,11.30
2021,02,12,14,18,14.50
2021,02,12,14,19,14.50
2021,02,12,14,20,11.30
2021,02,12,14,21,11.30
2021,02,12,14,22,8.10
2021,02,12,14,23,9.60
2021,02,12,14,24,14.50
2021,02,12,14,25,9.60
2021,02,12,14,26,17.70
2021,02,12,14,27,11.30
2021,02,12,14,28,8.10
2021,02,12,14,29,17.70
2021,02,12,14,30,11.30
2021,02,12,14,31,16.10
2021,02,12,14,32,12.90
2021,02,12,14,33,9.60
2021,02,12,14,34,9.60
2021,02,12,14,35,8.10
2021,02,12,14,36,17.70
2021,02,12,14,37,16.10
2021,02,12,14,38,17.70
2021,02,12,14,39,11.30
2021,02,12,14,40,11.30
2021,02,12,14,41,16.10
2021,02,12,14,42,14.50
2021,02,12,14,43,11.30
2021,02,12,14,44,9.60
2021,02,12,14,45,14.50
2021,02,12,14,46,9.60
2021,02,12,14,47,9.60
2021,02,12,14,48,8.10
2021,02,12,14,49,9.60
2021,02,12,14,50,17.70
2021,02,12,14,51,11.30
2021,02,12,14,52,8.10
2021,02,12,14,53,6.40
2021,02,12,14,54,6.40
2021,02,12,14,55,9.60
2021,02,12,14,56,1.60
2021,02,12,14,57,8.10
2021,02,12,14,58,9.60
2021,02,12,14,59,8.10
2021,02,12,15,00,9.60
2021,02,12,15,01,16.10
2021,02,12,15,02,14.50
2021,02,12,15,03,14.50
2021,02,12,15,04,9.60
2021,02,12,15,05,9.60
2021,02,12,15,06,9.60
2021,02,12,15,07,11.30
2021,02,12,15,08,9.60
2021,02,12,15,09,6.40
2021,02,12,15,10,4.80
2021,02,12,15,11,6.40
2021,02,12,15,12,6.40
2021,02,12,15,13,4.80
2021,02,12,15,14,12.90
2021,02,12,15,15,9.60
2021,02,12,15,16,11.30
2021,02,12,15,17,12.90
2021,02,12,15,18,19.30
2021,02,12,15,19,11.30
2021,02,12,15,20,11.30
2021,02,12,15,21,16.10
2021,02,12,15,22,11.30
2021,02,12,15,23,8.10
2021,02,12,15,24,9.60
2021,02,12,15,25,11.30
2021,02,12,15,26,9.60
2021,02,12,15,27,8.10
2021,02,12,15,28,4.80
2021,02,12,15,29,14.50
2021,02,12,15,30,9.60
2021,02,12,15,31,4.80
2021,02,12,15,32,6.40
2021,02,12,15,33,6.40
2021,02,12,15,34,8.10
2021,02,12,15,35,8.10
2021,02,12,15,36,11.30
2021,02,12,15,37,11.30
2021,02,12,15,38,12.90
2021,02,12,15,39,19.30
2021,02,12,15,40,16.10
2021,02,12,15,41,17.70
2021,02,12,15,42,9.60
2021,02,12,15,43,6.40
2021,02,12,15,44,6.40
2021,02,12,15,45,9.60
2021,02,12,15,46,8.10
2021,02,12,15,47,14.50
2021,02,12,15,48,9.60
2021,02,12,15,49,9.60
2021,02,12,15,50,9.60
2021,02,12,15,51,8.10
2021,02,12,15,52,8.10
2021,02,12,15,53,6.40
2021,02,12,15,54,8.10
2021,02,12,15,55,9.60
2021,02,12,15,56,4.80
2021,02,12,15,57,14.50
2021,02,12,15,58,8.10
2021,02,12,15,59,8.10
2021,02,12,16,00,3.20
2021,02,12,16,01,9.60
2021,02,12,16,02,14.50
2021,02,12,16,03,8.10
2021,02,12,16,04,8.10
2021,02,12,16,05,8.10
2021,02,12,16,06,9.60
2021,02,12,16,07,11.30
2021,02,12,16,08,9.60
2021,02,12,16,09,8.10
2021,02,12,16,10,9.60
2021,02,12,16,11,6.40
2021,02,12,16,12,8.10
2021,02,12,16,13,3.20
2021,02,12,16,14,4.80
2021,02,12,16,15,4.80
2021,02,12,16,16,9.60
2021,02,12,16,17,11.30
2021,02,12,16,18,22.50
2021,02,12,16,19,8.10
2021,02,12,16,20,6.40
2021,02,12,16,21,8.10
2021,02,12,16,22,11.30
2021,02,12,16,23,17.70
2021,02,12,16,24,16.10
2021,02,12,16,25,17.70
2021,02,12,16,26,6.40
2021,02,12,16,27,6.40
2021,02,12,16,28,8.10
2021,02,12,16,29,1.60
2021,02,12,16,30,1.60
2021,02,12,16,31,1.60
2021,02,12,16,32,1.60
2021,02,12,16,33,1.60
2021,02,12,16,34,1.60
2021,02,12,16,35,1.60
2021,02,12,16,36,1.60
2021,02,12,16,37,1.60
2021,02,12,16,38,19.30
2021,02,12,16,39,16.10
2021,02,12,16,40,14.50
2021,02,12,16,41,17.70
2021,02,12,16,42,17.70
2021,02,12,16,43,14.50
2021,02,12,16,44,16.10
2021,02,12,16,45,12.90
2021,02,12,16,46,16.10
2021,02,12,16,47,8.10
2021,02,12,16,48,14.50
2021,02,12,16,49,11.30
2021,02,12,16,50,6.40
2021,02,12,16,51,11.30
2021,02,12,16,52,16.10
2021,02,12,16,53,14.50
2021,02,12,16,54,14.50
2021,02,12,16,55,14.50
2021,02,12,16,56,11.30
2021,02,12,16,57,11.30
2021,02,12,16,58,11.30
2021,02,12,16,59,6.40
2021,02,12,17,00,20.90
2021,02,12,17,01,16.10
2021,02,12,17,02,14.50
2021,02,12,17,03,20.90
2021,02,12,17,04,19.30
2021,02,12,17,05,17.70
2021,02,12,17,06,22.50
2021,02,12,17,07,22.50
2021,02,12,17,08,19.30
2021,02,12,17,09,16.10
2021,02,12,17,10,25.70
2021,02,12,17,11,24.20
2021,02,12,17,12,25.70
2021,02,12,17,13,27.40
2021,02,12,17,14,24.20
2021,02,12,17,15,22.50
2021,02,12,17,16,17.70
2021,02,12,17,17,27.40
2021,02,12,17,18,19.30
2021,02,12,17,19,25.70
2021,02,12,17,20,25.70
2021,02,12,17,21,27.40
2021,02,12,17,22,19.30
2021,02,12,17,23,24.20
2021,02,12,17,24,29.00